Regional Weather Roundup
Issued by NWS Upton, NY

Current Version | Previous Version | Graphics & Text | Print | Product List | Glossary Off
Versions: 1 2 3 4 5 6 7 8 9 10 11 12 13 14 15 16 17 18 19 20 21 22 23 24 25 26 27

000
ASUS41 KOKX 220808
RWROKX

REGIONAL WEATHER ROUNDUP
NATIONAL WEATHER SERVICE NEW YORK NY
300 AM EST SUN JAN 22 2017

NOTE: "FAIR" INDICATES FEW OR NO CLOUDS BELOW 12,000 FEET WITH NO
SIGNIFICANT WEATHER AND/OR OBSTRUCTIONS TO VISIBILITY.

NYZ071-072-176-178-NJZ106-104-220900-
NEW YORK CITY METRO AREA

CITY           SKY/WX    TMP DP  RH WIND       PRES   REMARKS
Central Park   MOCLDY    44  44 100 CALM      29.77F FOG
Wall St Helipt CLOUDY    43  43 100 CALM      29.76F
LaGuardia APRT FOG       46  44  93 S9        29.76R VSB 1
Kennedy INTL   FOG       44  44 100 CALM      29.76F VSB 1/8
Breezy Point     N/A     41 N/A N/A S1          N/A
Newark/Liberty CLOUDY    44  44 100 W3        29.75F FOG
Teterboro      CLOUDY    45  44  97 SW7       29.75F FOG
$$

NYZ177-179-078>081-220900-
LONG ISLAND NEW YORK

CITY           SKY/WX    TMP DP  RH WIND       PRES   REMARKS
Jones Beach      N/A     41 N/A N/A MISG        N/A
Matinecock PT  NOT AVBL
Farmingdale    FOG       44  43  96 S6        29.76F VSB 3/4
MacArthur/ISP  FOG       43  43 100 SW5       29.75F VSB 1/4
Shirley        FOG       42  42 100 W3        29.77S VSB 1/4
Westhampton    FOG       41  40  96 CALM      29.77F VSB 1/2
Southampton    NOT AVBL
Bridgehampton  NOT AVBL
East Hampton   FOG       39  39  99 CALM      29.76F VSB 1/2
Montauk          N/A     41  41 100 CALM      29.77F
$$

NYZ052-065-067-220900-
HUDSON VALLEY

CITY           SKY/WX    TMP DP  RH WIND       PRES   REMARKS
White Plains   FOG       44  43  96 CALM      29.74S VSB 1/4
Newburgh       FOG       41  41 100 CALM      29.73F VSB 1/2
Montgomery     FOG       42  41  96 SW5       29.72S VSB 1/2
Poughkeepsie   CLOUDY    40  40 100 CALM      29.72F FOG
Albany         CLOUDY    38  36  92 CALM      29.75S FOG
$$

NJZ001-105-106-008-010-013-015-019>022-104-220900-
NEW JERSEY

CITY           SKY/WX    TMP DP  RH WIND       PRES   REMARKS
Newark/Liberty CLOUDY    44  44 100 W3        29.75F FOG
Teterboro      CLOUDY    45  44  97 SW7       29.75F FOG
Caldwell       FOG       44  43  96 W3        29.76S VSB 3/4
Somerville     FOG       44  42  93 CALM      29.73F VSB 1/4
Linden         FOG       44  43  99 CALM      29.75F VSB 3/4
Sussex         CLOUDY    41  41 100 CALM      29.74S FOG
Andover          N/A     41  41 100 SW3       29.74S
Trenton        FOG       44  43  96 S6        29.74F VSB 1/2
Millville      LGT RAIN  45  45 100 E6        29.74F FOG
Atlantic City  CLOUDY    45  43  93 CALM      29.75F FOG
Wrightstown    FOG       45  45  99 SE3       29.73F VSB 1/2
Toms River     FOG       45  45 100 CALM      29.76F VSB 1/2
Belmar         FOG       44  44 100 SE3       29.77R VSB 1/4
$$

PAZ047>061-062-071-220900-
EASTERN PENNSYLVANIA

CITY           SKY/WX    TMP DP  RH WIND       PRES   REMARKS
Philadelphia   FOG       45  44  97 E5        29.74F VSB 1/4
Allentown      FOG       43  41  93 NE3       29.73F VSB 1/2
Scranton       FOG       42  42 100 N3        29.72R VSB 1/4
$$

CTZ002-004>006-009-010-012-RIZ004-006-007-MAZ004-011-015-220900-
SOUTHERN NEW ENGLAND
 IN CT

CITY           SKY/WX    TMP DP  RH WIND       PRES   REMARKS
Bradley INTL   FOG       38  38 100 N3        29.75S VSB 1/4
Hartford       CLOUDY    37  37 100 CALM      29.75S FOG
Danbury        CLOUDY    40  38  93 CALM      29.74F FOG
Wtrbury/Oxford CLOUDY    39  37  93 CALM      29.74F VSB 1/4
Bridgeport     CLOUDY    43  40  89 CALM      29.75F FOG
Meriden        FOG       40  39  97 CALM      29.75F VSB 1/4
New Haven      FOG       41  40  96 CALM      29.75F VSB 1/4
Chester        FOG       41  39  93 CALM      29.74F VSB 1/2
Groton         FOG       40  39  97 CALM      29.75F VSB 1/2
Wilimantic     FOG       36  35  96 CALM      29.75F VSB 1/4

 IN RI

CITY           SKY/WX    TMP DP  RH WIND       PRES   REMARKS
Providence     FOG       35  34  96 CALM      29.75F VSB 1/4
Block Island   NOT AVBL
Westerly       FOG       41  39  93 CALM      29.77S VSB 1/4
 IN MA

CITY           SKY/WX    TMP DP  RH WIND       PRES   REMARKS
Boston         CLOUDY    41  40  96 CALM      29.75S
Worcester      PTCLDY    45  40  82 W12       29.72F
Westfield      FOG       34  34 100 N3        29.75R VSB 1/2
Provincetown   CLOUDY    39  38  96 S3        29.76S
Nantucket      FOG       40  39  97 W8        29.77S VSB 1/4 WCI  34
$$

ANZ330-335-338-340-345-350-353-355-220900-
COASTAL MARINE OBSERVATIONS


STATION/POSITION TIME  SKY/WX   TEMP    WIND        PRES    VSBY  WAVE
                                AIR SEA DIR/SP/G                  HT/PER
                 (UTC)          (F)     (DEG/KT/KT) (MB)    (MI)  (FT/S)
NY HARB ENTRANCE 0650            44 44  260/  6/  8 1008.2          3/13
20 S FIRE ISLAND 0750            45 45  260/  4/  4 1007.8          3/13
GREAT SOUTH BAY  NOT AVBL
23 SSW MONTAUK P 0650            44 47  250/ 10/ 14 1008.6          4/13
15 E BARNEGAT LI 0730               47                N/A           4/11
HUDSON CANYON    0650            49 51              1008.1          5/13
KINGS POINT      0742            44 40              1007.3
EXECUTION ROCKS  0745            43     190/  4/  8   N/A
CENTRAL LI SOUND 0715            40     230/  2/  2   N/A           0
EASTERN LI SOUND NOT AVBL
ROBBINS REEF     0748            43     240/  1/  2 1007.7
$$


>>>>>>>>>>>>>>>>>>>>>>>>>>>> KEY <<<<<<<<<<<<<<<<<<<<<<<<<<<
>                                                          <
>     SKY/WX - Sky Condition/Present Weather               <
>     TMP    - Temperature in Fahrenheit                   <
>     DP     - Dew Point in Fahrenheit                     <
>     RH     - Relative Humidity in Percent                <
>     WIND   - Direction (from) and Speed in MPH           <
>     PRES   - Mean Sea Level Pressure (inches of Hg)      <
>     WCI    - Wind Chill Index                            <
>     VSB    - VISIBILITY IN MILES                         <
>     HX     - HEAT INDEX                                  <
>     TC     - TEMPERATURE IN CELSIUS                      <
>     VRB    - VARIABLE WIND DIRECTION                     <
>                                                          <
>>>>>>>>>>>>>>>>>>>>>>>>>>>> KEY <<<<<<<<<<<<<<<<<<<<<<<<<<<




USA.gov is the U.S. government's official web portal to all federal, state and local government web resources and services.